Zurück zum Katalog

COSMOS 1275 DEB

AktivPO
NORAD 39938·DEBRIS·🇷🇺 Russia

Gestartet Jun 4, 1981 von Plesetsk Cosmodrome

Loading…

Nächste Überflüge (nächste 24 Stunden)

TLE

AktuellSource: Space-Track

Epoche: Sep 13, 2026, 09:49 UTC

1 39938U 81053MY  26256.40962453  .00000696  00000-0  73704-3 0  9998
2 39938  83.0684  50.5981 0132795  86.0782 275.5541 13.69232880611312

Verfolge COSMOS 1275 DEB in Echtzeit mit AllMySat

Download on the App Store